273P/Pons-Gambart (1827)

Japanese version
Home page
Updated on April 13, 2013

---------------------------------------------------------------------

* Profile

Designation 273P/1827 M1

* Orbital Elements

Epoch 1827 June 13.0 TT = JDT 2388520.5
T 1827 June 8.07314 TT                                  MPC
q   0.8079832            (2000.0)            P               Q
n   0.00523005     Peri.   20.05328     +0.56409992     -0.69842885
a  32.8699495      Node   320.29895     -0.81989669     -0.53695570
e   0.9754188      Incl.  136.40933     -0.09777882     +0.47315506
P 188
From 277 observations 1827 June 21-2013 Feb. 21.

* Magnitudes Graph

        m1 = 8.2 + 5 log d + 15.0 log r(t - 15)

---------------------------------------------------------------------

The orbital elements are published on M.P.E.C. 2013-D50.
The magnitudes graphs are made with Comet for Windows.

---------------------------------------------------------------------

Copyright(C) Seiichi Yoshida (comet@aerith.net). All rights reserved.